Location: Long Geng
(2.6167°N, 114.1333°E)
Time: 14:17:41
(UTC+00:00)

Cosmos 2263 Rocket - Pass Details

Date: 14 May 2021
Orbit: 822 x 849 km, 71.0° (Epoch: 16 June)

Event Time Altitude Azimuth Distance (km) Brightness Sun altitude
Rises 21:43:54 0° 317° (NW) 3,396 5.1 -7.6°
Reaches altitude 10° 21:46:59 10° 300° (WNW) 2,465 4.3 -6.9°
Maximum altitude 21:50:58 20° 255° (WSW) 1,875 3.4 -6.0°
Drops below altitude 10° 21:54:58 10° 210° (SSW) 2,471 4.2 -5.0°
Sets 21:58:05 0° 193° (SSW) 3,407 5.0 -4.3°
